Time,TemperatureF,DewpointF,PressureIn,WindDirection,WindDirectionDegrees,WindSpeedMPH,WindSpeedGustMPH,Humidity,HourlyPrecipIn,Conditions,Clouds,dailyrainin,SolarRadiationWatts/m^2,SoftwareType,DateUTC
2013-04-06 00:00:00,35.2,17.1,30.17,East,96,0.0,1.0,47,0.00,,,0.00,0.0,meteohub,2013-04-06 04:00:00,
2013-04-06 00:05:00,35.1,16.9,30.18,East,95,0.0,1.0,47,0.00,,,0.00,0.0,meteohub,2013-04-06 04:05:00,
2013-04-06 00:10:00,34.9,17.2,30.18,East,95,0.0,2.0,48,0.00,,,0.00,0.0,meteohub,2013-04-06 04:10:00,
2013-04-06 00:15:00,34.9,16.7,30.18,East,95,0.0,2.0,47,0.00,,,0.00,0.0,meteohub,2013-04-06 04:15:00,
2013-04-06 00:21:00,34.7,17.1,30.18,East,95,0.0,2.0,48,0.00,,,0.00,0.0,meteohub,2013-04-06 04:21:00,
2013-04-06 00:26:00,34.5,16.9,30.18,East,95,0.0,2.0,48,0.00,,,0.00,0.0,meteohub,2013-04-06 04:26:00,
2013-04-06 00:31:00,34.5,16.9,30.18,East,95,0.0,4.0,48,0.00,,,0.00,0.0,meteohub,2013-04-06 04:31:00,
2013-04-06 00:36:00,34.3,16.7,30.18,East,94,0.0,6.0,48,0.00,,,0.00,0.0,meteohub,2013-04-06 04:36:00,
2013-04-06 00:41:00,34.3,16.7,30.18,East,94,0.0,6.0,48,0.00,,,0.00,0.0,meteohub,2013-04-06 04:41:00,
2013-04-06 00:47:00,34.3,16.7,30.17,East,94,0.0,6.0,48,0.00,,,0.00,0.0,meteohub,2013-04-06 04:47:00,
2013-04-06 00:52:00,34.3,16.7,30.18,East,94,0.0,4.0,48,0.00,,,0.00,0.0,meteohub,2013-04-06 04:52:00,
2013-04-06 00:57:00,34.3,16.7,30.18,East,82,0.0,4.0,48,0.00,,,0.00,0.0,meteohub,2013-04-06 04:57:00,
2013-04-06 01:02:00,34.3,17.2,30.18,East,82,0.0,5.0,49,0.00,,,0.00,0.0,meteohub,2013-04-06 05:02:00,
2013-04-06 01:07:00,34.2,17.1,30.18,East,82,0.0,5.0,49,0.00,,,0.00,0.0,meteohub,2013-04-06 05:07:00,
2013-04-06 01:12:00,34.2,17.1,30.18,ENE,76,2.0,2.0,49,0.00,,,0.00,0.0,meteohub,2013-04-06 05:12:00,
2013-04-06 01:17:00,34.0,16.9,30.18,ENE,76,0.0,4.0,49,0.00,,,0.00,0.0,meteohub,2013-04-06 05:17:00,
2013-04-06 01:22:00,34.0,17.2,30.18,ENE,76,0.0,4.0,50,0.00,,,0.00,0.0,meteohub,2013-04-06 05:22:00,
2013-04-06 01:27:00,33.8,17.1,30.19,ENE,76,0.0,4.0,50,0.00,,,0.00,0.0,meteohub,2013-04-06 05:27:00,
2013-04-06 01:32:00,33.6,16.9,30.18,ENE,76,0.0,2.0,50,0.00,,,0.00,0.0,meteohub,2013-04-06 05:32:00,
2013-04-06 01:37:00,33.6,16.9,30.19,East,94,0.0,7.0,50,0.00,,,0.00,0.0,meteohub,2013-04-06 05:37:00,
2013-04-06 01:42:00,33.4,17.2,30.19,East,94,0.0,7.0,51,0.00,,,0.00,0.0,meteohub,2013-04-06 05:42:00,
2013-04-06 01:47:00,33.4,17.2,30.19,East,94,0.0,7.0,51,0.00,,,0.00,0.0,meteohub,2013-04-06 05:47:00,
2013-04-06 01:52:00,33.4,17.2,30.19,East,94,0.0,5.0,51,0.00,,,0.00,0.0,meteohub,2013-04-06 05:52:00,
2013-04-06 01:57:00,33.3,17.6,30.19,East,84,0.0,6.0,52,0.00,,,0.00,0.0,meteohub,2013-04-06 05:57:00,
2013-04-06 02:02:00,33.3,17.1,30.19,East,85,0.0,6.0,51,0.00,,,0.00,0.0,meteohub,2013-04-06 06:02:00,
2013-04-06 02:07:00,33.3,17.6,30.19,East,85,1.0,6.0,52,0.00,,,0.00,0.0,meteohub,2013-04-06 06:07:00,
2013-04-06 02:12:00,33.1,17.4,30.19,East,85,0.0,5.0,52,0.00,,,0.00,0.0,meteohub,2013-04-06 06:12:00,
2013-04-06 02:17:00,33.1,17.4,30.19,East,85,0.0,5.0,52,0.00,,,0.00,0.0,meteohub,2013-04-06 06:17:00,
2013-04-06 02:22:00,32.9,17.2,30.19,East,85,0.0,5.0,52,0.00,,,0.00,0.0,meteohub,2013-04-06 06:22:00,
2013-04-06 02:28:00,32.9,17.6,30.20,East,85,0.0,3.0,53,0.00,,,0.00,0.0,meteohub,2013-04-06 06:28:00,
2013-04-06 02:33:00,32.7,18.0,30.19,East,84,0.0,3.0,54,0.00,,,0.00,0.0,meteohub,2013-04-06 06:33:00,
2013-04-06 02:38:00,32.7,17.4,30.19,East,84,0.0,3.0,53,0.00,,,0.00,0.0,meteohub,2013-04-06 06:38:00,
2013-04-06 02:43:00,32.5,17.8,30.19,East,84,0.0,6.0,54,0.00,,,0.00,0.0,meteohub,2013-04-06 06:43:00,
2013-04-06 02:48:00,32.5,17.8,30.19,East,85,0.0,6.0,54,0.00,,,0.00,0.0,meteohub,2013-04-06 06:48:00,
2013-04-06 02:53:00,32.4,17.6,30.19,East,84,0.0,6.0,54,0.00,,,0.00,0.0,meteohub,2013-04-06 06:53:00,
2013-04-06 02:58:00,32.4,18.0,30.19,East,85,0.0,4.0,55,0.00,,,0.00,0.0,meteohub,2013-04-06 06:58:00,
2013-04-06 03:03:00,32.4,18.5,30.19,East,83,2.0,7.0,56,0.00,,,0.00,0.0,meteohub,2013-04-06 07:03:00,
2013-04-06 03:08:00,32.4,18.5,30.19,East,83,0.0,7.0,56,0.00,,,0.00,0.0,meteohub,2013-04-06 07:08:00,
2013-04-06 03:13:00,32.2,18.7,30.19,East,84,0.0,5.0,57,0.00,,,0.00,0.0,meteohub,2013-04-06 07:13:00,
2013-04-06 03:18:00,32.2,18.7,30.19,East,84,0.0,5.0,57,0.00,,,0.00,0.0,meteohub,2013-04-06 07:18:00,
2013-04-06 03:23:00,32.2,18.7,30.19,East,83,0.0,4.0,57,0.00,,,0.00,0.0,meteohub,2013-04-06 07:23:00,
2013-04-06 03:28:00,32.2,19.0,30.18,East,84,0.0,4.0,58,0.00,,,0.00,0.0,meteohub,2013-04-06 07:28:00,
2013-04-06 03:33:00,32.2,19.0,30.18,East,83,0.0,4.0,58,0.00,,,0.00,0.0,meteohub,2013-04-06 07:33:00,
2013-04-06 03:38:00,32.2,19.0,30.18,East,83,0.0,4.0,58,0.00,,,0.00,0.0,meteohub,2013-04-06 07:38:00,
2013-04-06 03:43:00,32.0,19.2,30.18,East,84,0.0,3.0,59,0.00,,,0.00,0.0,meteohub,2013-04-06 07:43:00,
2013-04-06 03:49:00,32.0,19.2,30.18,East,83,0.0,4.0,59,0.00,,,0.00,0.0,meteohub,2013-04-06 07:49:00,
2013-04-06 03:54:00,32.0,19.8,30.18,East,84,0.0,4.0,60,0.00,,,0.00,0.0,meteohub,2013-04-06 07:54:00,
2013-04-06 03:59:00,32.0,19.8,30.17,East,84,1.0,3.0,60,0.00,,,0.00,0.0,meteohub,2013-04-06 07:59:00,
2013-04-06 04:04:00,32.0,19.8,30.18,East,84,0.0,3.0,60,0.00,,,0.00,0.0,meteohub,2013-04-06 08:04:00,
2013-04-06 04:09:00,32.0,19.8,30.17,East,84,0.0,6.0,60,0.00,,,0.00,0.0,meteohub,2013-04-06 08:09:00,
2013-04-06 04:14:00,32.0,20.1,30.17,East,84,0.0,6.0,61,0.00,,,0.00,0.0,meteohub,2013-04-06 08:14:00,
2013-04-06 04:19:00,32.0,20.1,30.17,East,83,0.0,3.0,61,0.00,,,0.00,0.0,meteohub,2013-04-06 08:19:00,
2013-04-06 04:24:00,31.8,19.9,30.17,East,84,0.0,3.0,61,0.00,,,0.00,0.0,meteohub,2013-04-06 08:24:00,
2013-04-06 04:29:00,32.0,20.5,30.17,East,83,0.0,2.0,62,0.00,,,0.00,0.0,meteohub,2013-04-06 08:29:00,
2013-04-06 04:34:00,32.0,20.5,30.17,East,84,1.0,2.0,62,0.00,,,0.00,0.0,meteohub,2013-04-06 08:34:00,
2013-04-06 04:39:00,32.0,20.5,30.17,East,84,0.0,2.0,62,0.00,,,0.00,0.0,meteohub,2013-04-06 08:39:00,
2013-04-06 04:44:00,32.0,20.8,30.17,East,84,0.0,4.0,63,0.00,,,0.00,0.0,meteohub,2013-04-06 08:44:00,
2013-04-06 04:49:00,32.0,20.8,30.17,East,84,0.0,4.0,63,0.00,,,0.00,0.0,meteohub,2013-04-06 08:49:00,
2013-04-06 04:54:00,32.0,21.2,30.17,East,83,0.0,4.0,64,0.00,,,0.00,0.0,meteohub,2013-04-06 08:54:00,
2013-04-06 05:00:00,32.0,21.6,30.17,East,84,0.0,3.0,65,0.00,,,0.00,0.0,meteohub,2013-04-06 09:00:00,
2013-04-06 05:08:00,32.2,21.7,30.16,East,84,0.0,3.0,65,0.00,,,0.00,0.0,meteohub,2013-04-06 09:08:00,
2013-04-06 05:13:00,32.2,22.1,30.16,East,84,0.0,4.0,66,0.00,,,0.00,0.0,meteohub,2013-04-06 09:13:00,
2013-04-06 05:18:00,32.2,22.1,30.17,East,84,0.0,4.0,66,0.00,,,0.00,0.0,meteohub,2013-04-06 09:18:00,
2013-04-06 05:23:00,32.2,22.5,30.16,East,83,0.0,3.0,67,0.00,,,0.00,0.0,meteohub,2013-04-06 09:23:00,
2013-04-06 05:28:00,32.2,22.5,30.16,East,84,0.0,3.0,67,0.00,,,0.00,0.0,meteohub,2013-04-06 09:28:00,
2013-04-06 05:33:00,32.2,22.8,30.16,East,84,0.0,3.0,68,0.00,,,0.00,0.0,meteohub,2013-04-06 09:33:00,
2013-04-06 05:38:00,32.4,23.0,30.16,East,84,0.0,4.0,68,0.00,,,0.00,0.0,meteohub,2013-04-06 09:38:00,
2013-04-06 05:43:00,32.4,23.4,30.16,East,84,0.0,4.0,69,0.00,,,0.00,0.0,meteohub,2013-04-06 09:43:00,
2013-04-06 05:48:00,32.4,23.4,30.16,East,83,0.0,4.0,69,0.00,,,0.00,0.0,meteohub,2013-04-06 09:48:00,
2013-04-06 05:53:00,32.5,23.9,30.16,East,83,0.0,4.0,70,0.00,,,0.00,0.0,meteohub,2013-04-06 09:53:00,
2013-04-06 05:58:00,32.5,23.9,30.16,East,84,3.0,5.0,70,0.00,,,0.00,0.0,meteohub,2013-04-06 09:58:00,
2013-04-06 06:03:00,32.7,24.1,30.16,East,84,0.0,5.0,70,0.00,,,0.00,0.0,meteohub,2013-04-06 10:03:00,
2013-04-06 06:08:00,32.7,24.1,30.16,East,83,0.0,5.0,70,0.00,,,0.00,0.0,meteohub,2013-04-06 10:08:00,
2013-04-06 06:13:00,32.9,24.3,30.16,East,85,0.0,5.0,70,0.00,,,0.00,0.0,meteohub,2013-04-06 10:13:00,
2013-04-06 06:18:00,33.1,24.6,30.16,East,84,0.0,5.0,71,0.00,,,0.00,0.0,meteohub,2013-04-06 10:18:00,
2013-04-06 06:23:00,33.1,24.4,30.16,East,86,0.0,6.0,70,0.00,,,0.00,0.0,meteohub,2013-04-06 10:23:00,
2013-04-06 06:28:00,33.3,24.8,30.15,East,87,0.0,6.0,71,0.00,,,0.00,0.0,meteohub,2013-04-06 10:28:00,
2013-04-06 06:34:00,33.4,24.8,30.16,East,101,0.0,6.0,70,0.00,,,0.00,0.0,meteohub,2013-04-06 10:34:00,
2013-04-06 06:39:00,33.4,24.8,30.16,ESE,102,0.0,11.0,70,0.00,,,0.00,0.0,meteohub,2013-04-06 10:39:00,
2013-04-06 06:44:00,33.4,25.0,30.15,ESE,102,0.0,11.0,71,0.00,,,0.00,0.0,meteohub,2013-04-06 10:44:00,
2013-04-06 06:49:00,33.6,25.2,30.16,ESE,102,0.0,11.0,71,0.00,,,0.00,0.0,meteohub,2013-04-06 10:49:00,
2013-04-06 06:54:00,33.6,25.2,30.15,East,96,5.0,8.0,71,0.00,,,0.00,0.0,meteohub,2013-04-06 10:54:00,
2013-04-06 06:59:00,33.8,25.3,30.15,East,96,0.0,9.0,71,0.00,,,0.00,0.0,meteohub,2013-04-06 10:59:00,
2013-04-06 07:04:00,34.0,25.5,30.14,East,95,2.0,11.0,71,0.00,,,0.00,0.0,meteohub,2013-04-06 11:04:00,
2013-04-06 07:10:00,34.0,25.5,30.15,East,97,1.0,11.0,71,0.00,,,0.00,0.0,meteohub,2013-04-06 11:10:00,
2013-04-06 07:15:00,34.2,25.7,30.14,East,92,0.0,11.0,71,0.00,,,0.00,0.0,meteohub,2013-04-06 11:15:00,
2013-04-06 07:20:00,34.2,25.7,30.14,East,95,6.0,11.0,71,0.00,,,0.00,0.0,meteohub,2013-04-06 11:20:00,
2013-04-06 07:25:00,34.2,26.1,30.14,East,101,0.0,8.0,72,0.00,,,0.00,0.0,meteohub,2013-04-06 11:25:00,
2013-04-06 07:32:00,34.3,26.2,30.13,East,98,6.0,8.0,72,0.00,,,0.00,0.0,meteohub,2013-04-06 11:32:00,
2013-04-06 07:33:00,34.3,26.2,30.14,East,101,9.0,9.0,72,0.00,,,0.00,0.0,meteohub,2013-04-06 11:33:00,
2013-04-06 07:38:00,34.3,26.2,30.14,ESE,105,1.0,9.0,72,0.00,,,0.00,9.0,meteohub,2013-04-06 11:38:00,
2013-04-06 07:43:00,34.3,26.2,30.14,ESE,107,0.0,11.0,72,0.00,,,0.00,12.0,meteohub,2013-04-06 11:43:00,
2013-04-06 07:48:00,34.3,26.2,30.14,East,88,0.0,11.0,72,0.00,,,0.00,16.0,meteohub,2013-04-06 11:48:00,
2013-04-06 07:53:00,34.3,25.9,30.13,East,97,0.0,11.0,71,0.00,,,0.00,19.0,meteohub,2013-04-06 11:53:00,
2013-04-06 07:58:00,34.5,26.4,30.14,East,98,0.0,12.0,72,0.00,,,0.00,18.0,meteohub,2013-04-06 11:58:00,
2013-04-06 08:03:00,34.7,26.2,30.14,ESE,111,0.0,12.0,71,0.00,,,0.00,25.0,meteohub,2013-04-06 12:03:00,
2013-04-06 08:08:00,34.7,26.6,30.14,East,97,0.0,12.0,72,0.00,,,0.00,25.0,meteohub,2013-04-06 12:08:00,
2013-04-06 08:13:00,34.9,26.4,30.13,East,94,0.0,9.0,71,0.00,,,0.00,25.0,meteohub,2013-04-06 12:13:00,
2013-04-06 08:18:00,35.1,26.6,30.14,East,96,0.0,9.0,71,0.00,,,0.00,25.0,meteohub,2013-04-06 12:18:00,
2013-04-06 08:23:00,35.1,26.2,30.14,ESE,109,7.0,9.0,70,0.00,,,0.00,28.0,meteohub,2013-04-06 12:23:00,
2013-04-06 08:28:00,35.2,26.1,30.14,East,99,0.0,9.0,69,0.00,,,0.00,44.0,meteohub,2013-04-06 12:28:00,
2013-04-06 08:33:00,35.4,26.2,30.14,ESE,103,0.0,16.0,69,0.00,,,0.00,44.0,meteohub,2013-04-06 12:33:00,
2013-04-06 08:38:00,35.4,26.2,30.14,ESE,102,6.0,16.0,69,0.00,,,0.00,47.0,meteohub,2013-04-06 12:38:00,
2013-04-06 08:43:00,35.6,26.1,30.14,ESE,106,6.0,16.0,68,0.00,,,0.00,53.0,meteohub,2013-04-06 12:43:00,
2013-04-06 08:48:00,35.8,26.2,30.13,East,101,8.0,16.0,68,0.00,,,0.00,62.0,meteohub,2013-04-06 12:48:00,
2013-04-06 08:53:00,36.0,26.1,30.14,ESE,102,0.0,12.0,67,0.00,,,0.00,53.0,meteohub,2013-04-06 12:53:00,
2013-04-06 08:58:00,36.0,26.1,30.14,ESE,105,2.0,12.0,67,0.00,,,0.00,58.0,meteohub,2013-04-06 12:58:00,
2013-04-06 09:04:00,36.1,26.2,30.13,East,92,9.0,15.0,67,0.00,,,0.00,67.0,meteohub,2013-04-06 13:04:00,
2013-04-06 09:09:00,36.1,25.9,30.12,ESE,114,0.0,15.0,66,0.00,,,0.00,77.0,meteohub,2013-04-06 13:09:00,
2013-04-06 09:14:00,36.3,25.7,30.12,East,100,6.0,13.0,65,0.00,,,0.00,81.0,meteohub,2013-04-06 13:14:00,
2013-04-06 09:19:00,36.5,25.9,30.12,ESE,105,7.0,13.0,65,0.00,,,0.00,76.0,meteohub,2013-04-06 13:19:00,
2013-04-06 09:24:00,36.7,25.7,30.12,East,94,9.0,15.0,64,0.00,,,0.00,79.0,meteohub,2013-04-06 13:24:00,
2013-04-06 09:29:00,36.9,25.5,30.12,East,88,7.0,15.0,63,0.00,,,0.00,91.0,meteohub,2013-04-06 13:29:00,
2013-04-06 09:34:00,37.0,25.7,30.12,East,99,6.0,15.0,63,0.00,,,0.00,104.0,meteohub,2013-04-06 13:34:00,
2013-04-06 09:39:00,37.2,25.3,30.12,ESE,107,7.0,14.0,62,0.00,,,0.00,107.0,meteohub,2013-04-06 13:39:00,
2013-04-06 09:44:00,37.2,25.0,30.11,SSE,159,5.0,14.0,61,0.00,,,0.00,113.0,meteohub,2013-04-06 13:44:00,
2013-04-06 09:49:00,37.4,25.2,30.11,East,100,0.0,14.0,61,0.00,,,0.00,121.0,meteohub,2013-04-06 13:49:00,
2013-04-06 09:54:00,37.6,25.0,30.11,East,96,12.0,14.0,60,0.00,,,0.00,130.0,meteohub,2013-04-06 13:54:00,
2013-04-06 09:59:00,37.8,24.8,30.12,ESE,123,2.0,14.0,59,0.00,,,0.00,130.0,meteohub,2013-04-06 13:59:00,
2013-04-06 10:04:00,37.9,24.4,30.11,ESE,113,4.0,13.0,58,0.00,,,0.00,139.0,meteohub,2013-04-06 14:04:00,
2013-04-06 10:10:00,37.9,24.1,30.11,East,92,6.0,16.0,57,0.00,,,0.00,149.0,meteohub,2013-04-06 14:10:00,
2013-04-06 10:15:00,38.1,23.9,30.12,ESE,115,6.0,16.0,56,0.00,,,0.00,151.0,meteohub,2013-04-06 14:15:00,
2013-04-06 10:20:00,38.3,24.4,30.11,ESE,109,0.0,16.0,57,0.00,,,0.00,148.0,meteohub,2013-04-06 14:20:00,
2013-04-06 10:25:00,38.5,24.1,30.11,ESE,111,6.0,16.0,56,0.00,,,0.00,181.0,meteohub,2013-04-06 14:25:00,
2013-04-06 10:30:00,38.7,23.9,30.11,SSE,157,5.0,14.0,55,0.00,,,0.00,183.0,meteohub,2013-04-06 14:30:00,
2013-04-06 10:35:00,38.8,24.1,30.11,SSE,147,0.0,14.0,55,0.00,,,0.00,174.0,meteohub,2013-04-06 14:35:00,
2013-04-06 10:40:00,39.0,23.7,30.11,ESE,121,7.0,14.0,54,0.00,,,0.00,160.0,meteohub,2013-04-06 14:40:00,
2013-04-06 10:45:00,39.0,23.7,30.10,SSE,165,4.0,12.0,54,0.00,,,0.00,172.0,meteohub,2013-04-06 14:45:00,
2013-04-06 10:52:00,39.2,23.5,30.10,SE,126,6.0,19.0,53,0.00,,,0.00,213.0,meteohub,2013-04-06 14:52:00,
2013-04-06 10:57:00,39.6,23.9,30.09,East,99,5.0,19.0,53,0.00,,,0.00,216.0,meteohub,2013-04-06 14:57:00,
2013-04-06 11:02:00,39.9,23.7,30.09,East,97,5.0,16.0,52,0.00,,,0.00,237.0,meteohub,2013-04-06 15:02:00,
2013-04-06 11:08:00,40.3,23.2,30.08,ESE,119,7.0,16.0,50,0.00,,,0.00,265.0,meteohub,2013-04-06 15:08:00,
2013-04-06 11:13:00,40.8,22.6,30.08,East,98,7.0,16.0,48,0.00,,,0.00,265.0,meteohub,2013-04-06 15:13:00,
2013-04-06 11:18:00,40.8,22.1,30.08,ESE,107,2.0,19.0,47,0.00,,,0.00,267.0,meteohub,2013-04-06 15:18:00,
2013-04-06 11:23:00,41.0,22.8,30.08,SE,125,4.0,19.0,48,0.00,,,0.00,250.0,meteohub,2013-04-06 15:23:00,
2013-04-06 11:28:00,41.2,22.5,30.08,ESE,115,6.0,18.0,47,0.00,,,0.00,304.0,meteohub,2013-04-06 15:28:00,
2013-04-06 11:33:00,41.5,22.3,30.07,ESE,119,4.0,16.0,46,0.00,,,0.00,316.0,meteohub,2013-04-06 15:33:00,
2013-04-06 11:38:00,41.7,23.0,30.08,SE,130,4.0,16.0,47,0.00,,,0.00,318.0,meteohub,2013-04-06 15:38:00,
2013-04-06 11:43:00,42.1,22.3,30.07,ESE,106,13.0,16.0,45,0.00,,,0.00,338.0,meteohub,2013-04-06 15:43:00,
2013-04-06 11:48:00,42.4,22.6,30.07,ESE,120,5.0,16.0,45,0.00,,,0.00,345.0,meteohub,2013-04-06 15:48:00,
2013-04-06 11:53:00,42.8,22.5,30.06,ESE,109,7.0,16.0,44,0.00,,,0.00,322.0,meteohub,2013-04-06 15:53:00,
2013-04-06 11:58:00,43.0,22.6,30.06,ESE,110,6.0,16.0,44,0.00,,,0.00,294.0,meteohub,2013-04-06 15:58:00,
2013-04-06 12:03:00,43.0,21.4,30.06,SE,128,9.0,19.0,42,0.00,,,0.00,318.0,meteohub,2013-04-06 16:03:00,
2013-04-06 12:08:00,43.2,21.6,30.06,SSE,163,2.0,19.0,42,0.00,,,0.00,311.0,meteohub,2013-04-06 16:08:00,
2013-04-06 12:13:00,43.3,21.7,30.05,ESE,103,11.0,22.0,42,0.00,,,0.00,294.0,meteohub,2013-04-06 16:13:00,
2013-04-06 12:18:00,43.7,22.1,30.05,ESE,121,13.0,22.0,42,0.00,,,0.00,297.0,meteohub,2013-04-06 16:18:00,
2013-04-06 12:23:00,44.1,22.5,30.04,ESE,112,2.0,21.0,42,0.00,,,0.00,316.0,meteohub,2013-04-06 16:23:00,
2013-04-06 12:29:00,44.4,22.1,30.04,SSE,148,2.0,21.0,41,0.00,,,0.00,313.0,meteohub,2013-04-06 16:29:00,
2013-04-06 12:34:00,44.4,22.1,30.04,SE,144,8.0,21.0,41,0.00,,,0.00,299.0,meteohub,2013-04-06 16:34:00,
2013-04-06 12:40:00,45.0,22.1,30.03,SSE,168,8.0,21.0,40,0.00,,,0.00,302.0,meteohub,2013-04-06 16:40:00,
2013-04-06 12:45:00,45.3,22.5,30.03,SE,129,6.0,21.0,40,0.00,,,0.00,309.0,meteohub,2013-04-06 16:45:00,
2013-04-06 12:50:00,45.5,22.6,30.03,ESE,106,13.0,20.0,40,0.00,,,0.00,309.0,meteohub,2013-04-06 16:50:00,
2013-04-06 12:55:00,45.7,22.8,30.03,East,98,16.0,20.0,40,0.00,,,0.00,311.0,meteohub,2013-04-06 16:55:00,
2013-04-06 13:00:00,46.2,23.2,30.02,East,91,8.0,24.0,40,0.00,,,0.00,311.0,meteohub,2013-04-06 17:00:00,
2013-04-06 13:06:00,46.2,22.6,30.01,SSE,157,9.0,24.0,39,0.00,,,0.00,309.0,meteohub,2013-04-06 17:06:00,
2013-04-06 13:11:00,46.6,23.0,30.01,ESE,119,2.0,19.0,39,0.00,,,0.00,311.0,meteohub,2013-04-06 17:11:00,
2013-04-06 13:16:00,46.8,23.2,30.01,ESE,109,18.0,19.0,39,0.00,,,0.00,311.0,meteohub,2013-04-06 17:16:00,
2013-04-06 13:22:00,46.6,23.0,30.01,East,99,14.0,20.0,39,0.00,,,0.00,287.0,meteohub,2013-04-06 17:22:00,
2013-04-06 13:27:00,46.9,23.9,30.01,SE,125,4.0,20.0,40,0.00,,,0.00,334.0,meteohub,2013-04-06 17:27:00,
2013-04-06 13:32:00,47.1,24.1,30.00,ESE,119,12.0,20.0,40,0.00,,,0.00,276.0,meteohub,2013-04-06 17:32:00,
2013-04-06 13:37:00,47.1,23.4,30.00,ESE,109,7.0,18.0,39,0.00,,,0.00,350.0,meteohub,2013-04-06 17:37:00,
2013-04-06 13:42:00,47.3,23.0,29.99,SSE,161,6.0,25.0,38,0.00,,,0.00,362.0,meteohub,2013-04-06 17:42:00,
2013-04-06 13:48:00,47.5,23.7,29.99,ESE,106,5.0,25.0,39,0.00,,,0.00,264.0,meteohub,2013-04-06 17:48:00,
2013-04-06 13:53:00,47.3,23.5,29.99,SSE,155,2.0,25.0,39,0.00,,,0.00,264.0,meteohub,2013-04-06 17:53:00,
2013-04-06 13:58:00,47.7,23.9,29.99,ESE,121,15.0,21.0,39,0.00,,,0.00,448.0,meteohub,2013-04-06 17:58:00,
2013-04-06 14:04:00,48.0,24.8,29.98,ESE,107,8.0,21.0,40,0.00,,,0.00,547.0,meteohub,2013-04-06 18:04:00,
2013-04-06 14:10:00,48.7,23.5,29.97,ESE,112,13.0,21.0,37,0.00,,,0.00,533.0,meteohub,2013-04-06 18:10:00,
2013-04-06 14:15:00,49.5,24.3,29.97,SW,218,5.0,21.0,37,0.00,,,0.00,462.0,meteohub,2013-04-06 18:15:00,
2013-04-06 14:20:00,50.0,24.8,29.96,ESE,111,14.0,22.0,37,0.00,,,0.00,436.0,meteohub,2013-04-06 18:20:00,
2013-04-06 14:25:00,50.0,24.8,29.96,SE,128,6.0,22.0,37,0.00,,,0.00,432.0,meteohub,2013-04-06 18:25:00,
2013-04-06 14:30:00,50.4,25.0,29.95,SE,141,6.0,23.0,37,0.00,,,0.00,431.0,meteohub,2013-04-06 18:30:00,
2013-04-06 14:35:00,50.4,24.4,29.94,SE,133,6.0,23.0,36,0.00,,,0.00,285.0,meteohub,2013-04-06 18:35:00,
2013-04-06 14:41:00,50.4,25.0,29.94,ESE,108,8.0,22.0,37,0.00,,,0.00,190.0,meteohub,2013-04-06 18:41:00,
2013-04-06 14:46:00,50.2,25.0,29.94,SE,126,8.0,22.0,37,0.00,,,0.00,188.0,meteohub,2013-04-06 18:46:00,
2013-04-06 14:51:00,50.4,25.0,29.94,SE,126,2.0,18.0,37,0.00,,,0.00,281.0,meteohub,2013-04-06 18:51:00,
2013-04-06 14:56:00,50.7,25.3,29.94,ESE,102,5.0,18.0,37,0.00,,,0.00,327.0,meteohub,2013-04-06 18:56:00,
2013-04-06 15:01:00,51.1,25.7,29.93,ESE,113,5.0,18.0,37,0.00,,,0.00,292.0,meteohub,2013-04-06 19:01:00,
2013-04-06 15:06:00,51.3,25.2,29.92,SE,130,6.0,18.0,36,0.00,,,0.00,308.0,meteohub,2013-04-06 19:06:00,
2013-04-06 15:11:00,51.3,25.9,29.93,SE,145,6.0,15.0,37,0.00,,,0.00,234.0,meteohub,2013-04-06 19:11:00,
2013-04-06 15:17:00,51.4,26.1,29.92,SE,128,4.0,16.0,37,0.00,,,0.00,216.0,meteohub,2013-04-06 19:17:00,
2013-04-06 15:22:00,51.8,26.4,29.92,East,89,11.0,16.0,37,0.00,,,0.00,209.0,meteohub,2013-04-06 19:22:00,
2013-04-06 15:27:00,51.6,25.5,29.91,ESE,122,2.0,16.0,36,0.00,,,0.00,278.0,meteohub,2013-04-06 19:27:00,
2013-04-06 15:32:00,51.8,27.0,29.91,ESE,113,8.0,17.0,38,0.00,,,0.00,271.0,meteohub,2013-04-06 19:32:00,
2013-04-06 15:37:00,51.6,26.2,29.91,SSE,149,10.0,17.0,37,0.00,,,0.00,251.0,meteohub,2013-04-06 19:37:00,
2013-04-06 15:42:00,51.8,26.4,29.91,SE,132,6.0,14.0,37,0.00,,,0.00,179.0,meteohub,2013-04-06 19:42:00,
2013-04-06 15:47:00,51.6,26.2,29.91,ESE,117,5.0,14.0,37,0.00,,,0.00,165.0,meteohub,2013-04-06 19:47:00,
2013-04-06 15:52:00,51.8,26.4,29.89,East,101,8.0,13.0,37,0.00,,,0.00,165.0,meteohub,2013-04-06 19:52:00,
2013-04-06 15:57:00,51.8,27.7,29.89,SE,129,5.0,16.0,39,0.00,,,0.00,359.0,meteohub,2013-04-06 19:57:00,
2013-04-06 16:02:00,52.9,28.0,29.86,ESE,115,11.0,16.0,38,0.00,,,0.00,327.0,meteohub,2013-04-06 20:02:00,
2013-04-06 16:07:00,53.1,27.5,29.87,SSE,149,11.0,16.0,37,0.00,,,0.00,338.0,meteohub,2013-04-06 20:07:00,
2013-04-06 16:12:00,53.2,27.7,29.87,South,185,2.0,13.0,37,0.00,,,0.00,267.0,meteohub,2013-04-06 20:12:00,
2013-04-06 16:17:00,53.4,27.9,29.87,ESE,107,12.0,20.0,37,0.00,,,0.00,309.0,meteohub,2013-04-06 20:17:00,
2013-04-06 16:23:00,53.6,28.0,29.86,ESE,123,7.0,20.0,37,0.00,,,0.00,329.0,meteohub,2013-04-06 20:23:00,
2013-04-06 16:28:00,54.0,28.2,29.85,ESE,102,15.0,21.0,37,0.00,,,0.00,455.0,meteohub,2013-04-06 20:28:00,
2013-04-06 16:33:00,54.3,27.9,29.84,ESE,114,6.0,21.0,36,0.00,,,0.00,239.0,meteohub,2013-04-06 20:33:00,
2013-04-06 16:38:00,54.5,28.0,29.83,SE,126,8.0,21.0,36,0.00,,,0.00,271.0,meteohub,2013-04-06 20:38:00,
2013-04-06 16:43:00,54.7,28.2,29.83,ESE,115,4.0,20.0,36,0.00,,,0.00,237.0,meteohub,2013-04-06 20:43:00,
2013-04-06 16:48:00,54.5,28.0,29.82,SE,131,9.0,20.0,36,0.00,,,0.00,320.0,meteohub,2013-04-06 20:48:00,
2013-04-06 16:53:00,54.7,28.9,29.81,ESE,108,7.0,22.0,37,0.00,,,0.00,202.0,meteohub,2013-04-06 20:53:00,
2013-04-06 16:58:00,54.7,28.2,29.81,SE,130,6.0,22.0,36,0.00,,,0.00,176.0,meteohub,2013-04-06 20:58:00,
2013-04-06 17:03:00,54.7,28.2,29.81,SSE,154,11.0,22.0,36,0.00,,,0.00,251.0,meteohub,2013-04-06 21:03:00,
2013-04-06 17:08:00,54.9,28.4,29.81,ESE,111,8.0,22.0,36,0.00,,,0.00,227.0,meteohub,2013-04-06 21:08:00,
2013-04-06 17:13:00,54.9,28.4,29.81,ESE,107,7.0,20.0,36,0.00,,,0.00,218.0,meteohub,2013-04-06 21:13:00,
2013-04-06 17:18:00,55.0,28.6,29.81,ESE,119,13.0,21.0,36,0.00,,,0.00,218.0,meteohub,2013-04-06 21:18:00,
2013-04-06 17:23:00,55.2,28.8,29.80,SE,133,7.0,21.0,36,0.00,,,0.00,209.0,meteohub,2013-04-06 21:23:00,
2013-04-06 17:28:00,55.2,29.5,29.80,SE,135,5.0,21.0,37,0.00,,,0.00,167.0,meteohub,2013-04-06 21:28:00,
2013-04-06 17:33:00,55.6,29.7,29.79,SSE,148,5.0,21.0,37,0.00,,,0.00,121.0,meteohub,2013-04-06 21:33:00,
2013-04-06 17:39:00,55.2,29.5,29.79,ESE,102,2.0,21.0,37,0.00,,,0.00,79.0,meteohub,2013-04-06 21:39:00,
2013-04-06 17:44:00,55.0,29.3,29.79,ESE,112,4.0,18.0,37,0.00,,,0.00,70.0,meteohub,2013-04-06 21:44:00,
2013-04-06 17:49:00,55.0,29.8,29.79,SSE,167,6.0,20.0,38,0.00,,,0.00,77.0,meteohub,2013-04-06 21:49:00,
2013-04-06 17:54:00,55.0,29.8,29.78,ESE,119,4.0,20.0,38,0.00,,,0.00,104.0,meteohub,2013-04-06 21:54:00,
2013-04-06 17:59:00,55.2,30.0,29.78,East,91,14.0,18.0,38,0.00,,,0.00,90.0,meteohub,2013-04-06 21:59:00,
2013-04-06 18:05:00,55.2,30.0,29.78,ESE,106,9.0,18.0,38,0.00,,,0.00,93.0,meteohub,2013-04-06 22:05:00,
2013-04-06 18:10:00,55.2,30.0,29.78,SE,124,2.0,20.0,38,0.00,,,0.00,91.0,meteohub,2013-04-06 22:10:00,
2013-04-06 18:15:00,55.2,30.0,29.77,SE,128,4.0,20.0,38,0.00,,,0.00,88.0,meteohub,2013-04-06 22:15:00,
2013-04-06 18:20:00,55.4,30.2,29.78,ESE,103,20.0,20.0,38,0.00,,,0.00,88.0,meteohub,2013-04-06 22:20:00,
2013-04-06 18:25:00,55.6,30.4,29.78,SSW,202,5.0,19.0,38,0.00,,,0.00,70.0,meteohub,2013-04-06 22:25:00,
2013-04-06 18:30:00,55.6,30.4,29.78,East,101,6.0,20.0,38,0.00,,,0.00,47.0,meteohub,2013-04-06 22:30:00,
2013-04-06 18:35:00,55.8,31.1,29.79,ESE,107,6.0,20.0,39,0.00,,,0.00,37.0,meteohub,2013-04-06 22:35:00,
2013-04-06 18:40:00,55.6,31.1,29.78,ESE,118,7.0,13.0,39,0.00,,,0.00,39.0,meteohub,2013-04-06 22:40:00,
2013-04-06 18:45:00,55.6,31.1,29.78,SE,134,4.0,13.0,39,0.00,,,0.00,35.0,meteohub,2013-04-06 22:45:00,
2013-04-06 18:50:00,55.6,31.1,29.79,SE,134,1.0,14.0,39,0.00,,,0.00,30.0,meteohub,2013-04-06 22:50:00,
2013-04-06 18:55:00,55.6,31.1,29.79,ESE,117,4.0,14.0,39,0.00,,,0.00,25.0,meteohub,2013-04-06 22:55:00,
2013-04-06 19:00:00,55.6,31.6,29.78,ESE,120,0.0,7.0,40,0.00,,,0.00,18.0,meteohub,2013-04-06 23:00:00,
2013-04-06 19:05:00,55.6,31.6,29.78,ESE,111,0.0,7.0,40,0.00,,,0.00,18.0,meteohub,2013-04-06 23:05:00,
2013-04-06 19:10:00,55.6,31.6,29.78,ESE,111,5.0,9.0,40,0.00,,,0.00,19.0,meteohub,2013-04-06 23:10:00,
2013-04-06 19:15:00,55.6,31.6,29.78,ESE,111,0.0,9.0,40,0.00,,,0.00,21.0,meteohub,2013-04-06 23:15:00,
2013-04-06 19:20:00,55.6,31.6,29.77,East,96,7.0,9.0,40,0.00,,,0.00,21.0,meteohub,2013-04-06 23:20:00,
2013-04-06 19:25:00,55.6,32.2,29.77,SE,128,0.0,9.0,41,0.00,,,0.00,23.0,meteohub,2013-04-06 23:25:00,
2013-04-06 19:31:00,55.6,32.2,29.77,East,98,0.0,12.0,41,0.00,,,0.00,19.0,meteohub,2013-04-06 23:31:00,
2013-04-06 19:36:00,55.6,32.2,29.77,ESE,120,7.0,12.0,41,0.00,,,0.00,12.0,meteohub,2013-04-06 23:36:00,
2013-04-06 19:41:00,55.6,32.2,29.76,East,95,0.0,11.0,41,0.00,,,0.00,9.0,meteohub,2013-04-06 23:41:00,
2013-04-06 19:46:00,55.6,32.2,29.76,ESE,110,4.0,11.0,41,0.00,,,0.00,9.0,meteohub,2013-04-06 23:46:00,
2013-04-06 19:51:00,55.6,32.9,29.75,ESE,110,2.0,9.0,42,0.00,,,0.00,5.0,meteohub,2013-04-06 23:51:00,
2013-04-06 19:56:00,55.2,32.5,29.75,ESE,111,0.0,9.0,42,0.00,,,0.00,0.0,meteohub,2013-04-06 23:56:00,
2013-04-06 20:01:00,55.0,32.9,29.75,ESE,111,0.0,9.0,43,0.00,,,0.00,0.0,meteohub,2013-04-07 00:01:00,
2013-04-06 20:07:00,55.0,32.4,29.75,ESE,110,0.0,9.0,42,0.00,,,0.00,0.0,meteohub,2013-04-07 00:07:00,
2013-04-06 20:12:00,55.0,32.9,29.75,East,92,0.0,9.0,43,0.00,,,0.00,0.0,meteohub,2013-04-07 00:12:00,
2013-04-06 20:17:00,54.9,33.4,29.74,ESE,115,5.0,11.0,44,0.00,,,0.00,0.0,meteohub,2013-04-07 00:17:00,
2013-04-06 20:22:00,54.7,33.8,29.73,ESE,105,0.0,15.0,45,0.00,,,0.00,0.0,meteohub,2013-04-07 00:22:00,
2013-04-06 20:27:00,54.5,34.2,29.73,ESE,109,9.0,15.0,46,0.00,,,0.00,0.0,meteohub,2013-04-07 00:27:00,
2013-04-06 20:32:00,54.3,34.0,29.72,SE,137,6.0,11.0,46,0.00,,,0.00,0.0,meteohub,2013-04-07 00:32:00,
2013-04-06 20:37:00,54.1,34.3,29.72,SE,136,9.0,12.0,47,0.00,,,0.00,0.0,meteohub,2013-04-07 00:37:00,
2013-04-06 20:42:00,54.0,34.2,29.71,ESE,115,5.0,15.0,47,0.00,,,0.00,0.0,meteohub,2013-04-07 00:42:00,
2013-04-06 20:47:00,54.0,34.2,29.71,ESE,121,6.0,15.0,47,0.00,,,0.00,0.0,meteohub,2013-04-07 00:47:00,
2013-04-06 20:52:00,54.0,34.2,29.71,ESE,107,1.0,15.0,47,0.00,,,0.00,0.0,meteohub,2013-04-07 00:52:00,
2013-04-06 20:57:00,54.0,34.2,29.70,ESE,113,5.0,15.0,47,0.00,,,0.00,0.0,meteohub,2013-04-07 00:57:00,
2013-04-06 21:02:00,54.1,34.3,29.70,SSE,147,5.0,13.0,47,0.00,,,0.00,0.0,meteohub,2013-04-07 01:02:00,
2013-04-06 21:07:00,54.3,34.5,29.69,ESE,113,2.0,13.0,47,0.00,,,0.00,0.0,meteohub,2013-04-07 01:07:00,
2013-04-06 21:12:00,54.3,34.5,29.69,ESE,111,6.0,16.0,47,0.00,,,0.00,0.0,meteohub,2013-04-07 01:12:00,
2013-04-06 21:18:00,54.5,34.2,29.69,ESE,103,5.0,16.0,46,0.00,,,0.00,0.0,meteohub,2013-04-07 01:18:00,
2013-04-06 21:23:00,54.5,34.2,29.68,ESE,107,5.0,15.0,46,0.00,,,0.00,0.0,meteohub,2013-04-07 01:23:00,
2013-04-06 21:28:00,54.7,34.3,29.68,SE,133,5.0,15.0,46,0.00,,,0.00,0.0,meteohub,2013-04-07 01:28:00,
2013-04-06 21:33:00,54.9,34.0,29.68,ESE,107,8.0,19.0,45,0.00,,,0.00,0.0,meteohub,2013-04-07 01:33:00,
2013-04-06 21:38:00,55.0,34.2,29.68,ESE,109,5.0,20.0,45,0.00,,,0.00,0.0,meteohub,2013-04-07 01:38:00,
2013-04-06 21:43:00,55.2,34.2,29.68,ESE,110,1.0,20.0,45,0.00,,,0.00,0.0,meteohub,2013-04-07 01:43:00,
2013-04-06 21:48:00,55.2,33.6,29.68,SSE,148,1.0,16.0,44,0.00,,,0.00,0.0,meteohub,2013-04-07 01:48:00,
2013-04-06 21:53:00,55.2,34.2,29.67,ESE,117,4.0,16.0,45,0.00,,,0.00,0.0,meteohub,2013-04-07 01:53:00,
2013-04-06 21:58:00,55.4,34.3,29.68,ESE,110,6.0,16.0,45,0.00,,,0.00,0.0,meteohub,2013-04-07 01:58:00,
2013-04-06 22:03:00,55.4,33.8,29.68,ESE,119,8.0,16.0,44,0.00,,,0.00,0.0,meteohub,2013-04-07 02:03:00,
2013-04-06 22:08:00,55.4,34.3,29.68,SW,234,0.0,16.0,45,0.00,,,0.00,0.0,meteohub,2013-04-07 02:08:00,
2013-04-06 22:13:00,55.4,34.3,29.68,ESE,116,0.0,15.0,45,0.00,,,0.00,0.0,meteohub,2013-04-07 02:13:00,
2013-04-06 22:18:00,55.4,34.3,29.68,SE,127,4.0,15.0,45,0.00,,,0.00,0.0,meteohub,2013-04-07 02:18:00,
2013-04-06 22:26:00,55.4,34.3,29.67,SE,126,7.0,13.0,45,0.00,,,0.00,0.0,meteohub,2013-04-07 02:26:00,
2013-04-06 22:31:00,55.6,34.5,29.67,SE,141,6.0,13.0,45,0.00,,,0.00,0.0,meteohub,2013-04-07 02:31:00,
2013-04-06 22:37:00,55.8,34.7,29.67,SSE,163,0.0,13.0,45,0.00,,,0.00,0.0,meteohub,2013-04-07 02:37:00,
2013-04-06 22:42:00,55.8,34.7,29.67,ESE,113,7.0,12.0,45,0.00,,,0.00,0.0,meteohub,2013-04-07 02:42:00,
2013-04-06 22:47:00,55.9,34.9,29.68,WSW,238,3.0,12.0,45,0.00,,,0.00,0.0,meteohub,2013-04-07 02:47:00,
2013-04-06 22:52:00,56.1,35.6,29.68,WSW,248,2.0,15.0,46,0.00,,,0.00,0.0,meteohub,2013-04-07 02:52:00,
2013-04-06 22:57:00,56.1,35.6,29.69,SW,234,3.0,15.0,46,0.00,,,0.00,0.0,meteohub,2013-04-07 02:57:00,
2013-04-06 23:02:00,56.1,35.6,29.69,WSW,244,4.0,15.0,46,0.00,,,0.00,0.0,meteohub,2013-04-07 03:02:00,
2013-04-06 23:07:00,56.3,36.9,29.68,SW,221,2.0,15.0,48,0.00,,,0.00,0.0,meteohub,2013-04-07 03:07:00,
2013-04-06 23:12:00,56.1,36.7,29.68,SSW,194,7.0,17.0,48,0.00,,,0.00,0.0,meteohub,2013-04-07 03:12:00,
2013-04-06 23:17:00,56.3,38.8,29.68,SSE,155,5.0,22.0,52,0.00,,,0.00,0.0,meteohub,2013-04-07 03:17:00,
2013-04-06 23:22:00,55.9,40.5,29.68,WSW,250,7.0,22.0,56,0.00,,,0.00,0.0,meteohub,2013-04-07 03:22:00,
2013-04-06 23:27:00,55.4,41.4,29.67,WSW,244,7.0,22.0,59,0.00,,,0.00,0.0,meteohub,2013-04-07 03:27:00,
2013-04-06 23:32:00,54.9,41.2,29.67,SW,228,3.0,20.0,60,0.00,,,0.00,0.0,meteohub,2013-04-07 03:32:00,
2013-04-06 23:37:00,54.3,40.8,29.67,SW,226,3.0,18.0,60,0.00,,,0.00,0.0,meteohub,2013-04-07 03:37:00,
2013-04-06 23:42:00,54.1,41.0,29.66,SW,214,9.0,14.0,61,0.00,,,0.00,0.0,meteohub,2013-04-07 03:42:00,
2013-04-06 23:47:00,54.0,40.8,29.66,SSE,167,1.0,14.0,61,0.00,,,0.00,0.0,meteohub,2013-04-07 03:47:00,
2013-04-06 23:52:00,53.8,40.6,29.66,SSE,168,6.0,11.0,61,0.00,,,0.00,0.0,meteohub,2013-04-07 03:52:00,
2013-04-06 23:57:00,53.8,40.6,29.66,WSW,239,3.0,11.0,61,0.00,,,0.00,0.0,meteohub,2013-04-07 03:57:00,